Regional Weather Roundup
Issued by NWS Charleston, SC

Current Version | Previous Version | Text Only | Print | Product List | Glossary Off
Versions: 1 2 3 4 5 6 7 8 9 10 11 12 13 14 15 16 17 18 19 20 21 22 23 24 25 26 27 28 29 30 31 32 33 34 35 36 37 38 39 40 41 42 43 44 45 46 47 48 49 50
958 ASUS42 KCHS 290813 RWRCHS REGIONAL WEATHER ROUNDUP NATIONAL WEATHER SERVICE CHARLESTON SC 400 AM EDT SUN MAY 29 2016 NOTE: "FAIR" INDICATES FEW OR NO CLOUDS BELOW 12,000 FEET WITH NO SIGNIFICANT WEATHER AND/OR OBSTRUCTIONS TO VISIBILITY. NOT ALL STATIONS ARE QUALITY CONTROLLED. USE DATA WITH CAUTION... ESPECIALLY DEWPOINT OBSERVATIONS. SCZ027-030-031-034>040-042>050-290900- ...SOUTHEAST SOUTH CAROLINA... CITY SKY/WX TMP DP RH WIND PRES REMARKS N CHARLESTON CLOUDY 73 70 90 NE12 29.92F WATERFRONT PRK N/A 73 72 96 NE13 29.91F MOUNT PLEASANT DRIZZLE 73 72 94 NE5 29.92F JOHNS ISLAND DRIZZLE 73 73 100 NE10G16 29.92F PINOPOLIS N/A 73 72 94 NE15 29.87F MONCKS CORNER CLOUDY 68 66 94 NE8 29.95F SUMMERVILLE CLOUDY 72 72 100 N7 29.96F BEAUFORT MCAS RAIN 68 67 96 W8 29.94F FOG BEAUFORT ARPT DRIZZLE 68 68 100 NW7 29.94S HILTON HEAD IS LGT RAIN 70 70 100 NW8 29.95F WALTERBORO CLOUDY 72 72 100 N7 29.96S ALLENDALE HVY RAIN 66 66 100 N9 29.99F ...SOUTHERN MIDLANDS AND PEE DEE... CITY SKY/WX TMP DP RH WIND PRES REMARKS GEORGETOWN PTSUNNY 72 70 94 NE9G16 29.96F KINGSTREE DRIZZLE 70 68 94 CALM 29.98F ORANGEBURG LGT RAIN 70 67 90 N8 30.00F BARNWELL HVY RAIN 66 66 100 NW8 30.01F AIKEN RAIN 64 64 100 W7 30.08F MANNING CLOUDY 70 68 94 N6 29.98F COLUMBIA LGT RAIN 71 67 87 NW7 30.02F SUMTER CLOUDY 70 68 94 N10 29.99S FLORENCE RAIN 72 70 93 NE13 30.01F MYRTLE BEACH CLOUDY 73 66 78 NE7 30.00F N MYRTLE BEACH LGT RAIN 73 71 93 NE10 29.98F $$ GAZ063-065-086>088-099>101-113>116-118-119-134>141-150-290900- ...SOUTHEAST GEORGIA... CITY SKY/WX TMP DP RH WIND PRES REMARKS SAVANNAH ARPT CLOUDY 68 66 93 NW13 29.97F HUNTER AAF MOCLDY 68 68 100 W7 29.94F FORT STEWART MOCLDY 68 65 90 W7 29.97F STATESBORO LGT RAIN 68 68 99 N10 30.00F SYLVANIA HVY RAIN 69 67 94 N6 30.02S CLAXTON CLOUDY 69 67 95 W8 30.00F ...CSRA...CENTRAL AND FAR SOUTHEAST GEORGIA... CITY SKY/WX TMP DP RH WIND PRES REMARKS THOMSON CLOUDY 69 69 100 NW3 30.11F AUGUSTA-BUSH RAIN 67 66 97 N5 30.05F FOG AUGUSTA-DANIEL LGT RAIN 67 64 90 NW6 30.06F SWAINSBORO DRIZZLE 66 64 94 NW5 30.05S VIDALIA CLOUDY 68 63 83 W3 30.04S EASTMAN FAIR 68 68 100 CALM 30.07F HAZLEHURST FAIR 69 65 86 CALM 30.03F ALMA CLEAR 67 63 87 W3 30.03F WAYCROSS CLEAR 65 64 96 CALM 30.03F JESUP FAIR 63 61 94 NE3 30.02S BAXLEY FAIR 68 64 88 NW3 30.02F BRUNSWICK CLEAR 70 66 88 W6 30.01S SAINT SIMONS CLEAR 69 66 90 NW8 29.99F $$ SCZ027-028-034-036>038-045-046-048>050-GAZ119-141-290900- ...LAKE AND SUPPLEMENTAL COASTAL OBSERVATIONS... STATION/POSITION TIME TEMP WIND PRES WAVE SWELL AIR SEA DIR/SP/G HT/PER HT/PER/DIR (UTC) (F) (DEG/KT/KT) (MB) (FT/S) (FT/S/D) WINYAH BAY 0645 74 70/ 20 1014.0 LAKE MURRAY 0700 70 300/ 4/ 8 1017.3F ACE BASIN NERRS NOT AVBL FORT PULASKI 0700 70 77 310/ 17/ 21 1014.9F SAPELO ISLAND 0700 71 320/ 9 1015.0F $$ ANZ835-935-AMZ111-154-330-350-352-354-370-450-454-472-290900- ...C-MAN AND BUOY OBSERVATIONS... STATION/POSITION TIME TEMP WIND PRES WAVE SWELL AIR SEA DIR/SP/G HT/PER HT/PER/DIR (UTC) (F) (DEG/KT/KT) (MB) (FT/S) (FT/S/D) BUOY 41004 0750 78 78 100/ 17/ 21 1011.5F 7/ 8 3/13 BUOY 41008 0750 72 75 320/ 16/ 21 1014.2F 5/ 6 3/ 80/ 8 FOLLY BEACH CMAN 0700 74 40/ 16/ 18 1013.7F CAPERS NEARSHORE 0708 74 75 60/ 17/ 25 1013.0F FRIPP NEARSHORE 0708 71 75 330/ 14/ 19 1013.0F STATION/POSITION TIME TEMP WIND PRES WAVE SWELL AIR SEA DIR/SP/G HT/PER HT/PER/DIR (UTC) (F) (DEG/KT/KT) (MB) (FT/S) (FT/S/D) 5E ST. MARYS GA 0701 78 N/A 5/ 7 FRYING PAN BUOY 0700 77 78 150/ 17/ 23 1015.4F BUOY 41025 0750 78 79 140/ 16/ 17 1018.5F 4/ 8 2/140/ 8 CAPE LOOKOUT NC 0700 74 120/ 11/ 12 1017.6F BUOY 41002 0750 75 75 120/ 14/ 16 1017.9F 4/ 7 2/100/ 7 BUOY 41010 0720 79 79 210/ 8/ 10 1016.5F ST AUGUSTINE FL 0800 70 78 280/ 4/ 5 1017.6F $$

USA.gov is the U.S. government's official web portal to all federal, state and local government web resources and services.